Location: Cossonay
(46.5833°N, 6.4167°E)
Time: 09:39:53
(UTC+00:00)

STARLINK-1257 - Pass Details

Date: 04 October 2020
Orbit: 549 x 550 km, 53.0° (Epoch: 21 October)

Event Time Altitude Azimuth Distance (km) Brightness Sun altitude
Exits shadow 04:45:20 12° 246° (WSW) 1,717 5.6 -9.8°
Maximum altitude 04:49:13 77° 331° (NNW) 568 3.6 -9.1°
Drops below altitude 10° 04:53:22 10° 59° (ENE) 1,825 7.4 -8.4°
Sets 04:55:37 0° 61° (ENE) 2,721 8.4 -8.0°
